Time,TemperatureF,DewpointF,PressureIn,WindDirection,WindDirectionDegrees,WindSpeedMPH,WindSpeedGustMPH,Humidity,HourlyPrecipIn,Conditions,Clouds,dailyrainin,SoftwareType,DateUTC
2013-01-15 00:02:00,47.7,30.9,29.78,SSW,195,2.7,4.5,52,0.00,,SCT025,0.00,VWS V13.01,2013-01-14 23:02:00,
2013-01-15 00:07:00,47.5,30.8,29.78,South,186,0.0,4.0,52,0.00,,SCT025,0.00,VWS V13.01,2013-01-14 23:07:00,
2013-01-15 00:12:00,47.5,30.8,29.81,SSW,205,0.0,0.0,52,0.00,,SCT025,0.00,VWS V13.01,2013-01-14 23:12:00,
2013-01-15 00:17:00,47.3,31.0,29.81,SSW,202,0.0,3.1,53,0.00,,SCT025,0.00,VWS V13.01,2013-01-14 23:17:00,
2013-01-15 00:22:00,47.1,30.9,29.81,South,176,0.0,0.0,53,0.00,,SCT025,0.00,VWS V13.01,2013-01-14 23:22:00,
2013-01-15 00:27:00,47.1,30.9,29.78,South,176,0.0,2.2,53,0.00,,SCT025,0.00,VWS V13.01,2013-01-14 23:27:00,
2013-01-15 00:32:00,47.1,30.9,29.78,SSW,202,2.2,2.2,53,0.00,,SCT025,0.00,VWS V13.01,2013-01-14 23:32:00,
2013-01-15 00:38:00,47.1,30.4,29.78,SSW,206,0.0,3.1,52,0.00,,SCT025,0.00,VWS V13.01,2013-01-14 23:38:00,
2013-01-15 00:43:00,47.1,30.9,29.81,SSW,202,0.0,0.0,53,0.00,,SCT025,0.00,VWS V13.01,2013-01-14 23:43:00,
2013-01-15 00:48:00,46.9,30.7,29.81,South,177,0.0,0.0,53,0.00,,SCT025,0.00,VWS V13.01,2013-01-14 23:48:00,
2013-01-15 00:53:00,46.9,30.7,29.81,SSE,160,0.0,0.0,53,0.00,,SCT025,0.00,VWS V13.01,2013-01-14 23:53:00,
2013-01-15 00:58:00,47.3,30.6,29.78,SE,144,2.7,4.0,52,0.00,,SCT025,0.00,VWS V13.01,2013-01-14 23:58:00,
2013-01-15 01:03:00,47.3,30.1,29.78,SSE,161,3.6,3.6,51,0.00,,SCT025,0.00,VWS V13.01,2013-01-15 00:03:00,
2013-01-15 01:08:00,47.3,30.1,29.78,SSE,149,3.1,4.9,51,0.00,,SCT025,0.00,VWS V13.01,2013-01-15 00:08:00,
2013-01-15 01:13:00,47.3,30.1,29.78,SSE,164,2.2,2.7,51,0.00,,SCT025,0.00,VWS V13.01,2013-01-15 00:13:00,
2013-01-15 01:18:00,47.3,30.1,29.78,SSE,151,3.1,3.1,51,0.00,,SCT025,0.00,VWS V13.01,2013-01-15 00:18:00,
2013-01-15 01:23:00,47.3,30.1,29.78,SE,130,2.2,2.7,51,0.00,,SCT025,0.00,VWS V13.01,2013-01-15 00:23:00,
2013-01-15 01:28:00,47.3,30.1,29.78,SE,144,0.0,0.0,51,0.00,,SCT025,0.00,VWS V13.01,2013-01-15 00:28:00,
2013-01-15 01:33:00,47.3,30.1,29.78,SSE,157,0.0,0.0,51,0.00,,FEW030,0.00,VWS V13.01,2013-01-15 00:33:00,
2013-01-15 01:38:00,47.3,29.6,29.78,South,184,4.0,4.0,50,0.00,,FEW030,0.00,VWS V13.01,2013-01-15 00:38:00,
2013-01-15 01:43:00,47.3,29.6,29.78,South,188,2.7,5.4,50,0.00,,FEW030,0.00,VWS V13.01,2013-01-15 00:43:00,
2013-01-15 01:48:00,47.3,30.1,29.78,SSE,162,3.6,3.6,51,0.00,,FEW030,0.00,VWS V13.01,2013-01-15 00:48:00,
2013-01-15 01:53:00,47.3,30.1,29.78,SSE,168,2.7,3.1,51,0.00,,FEW030,0.00,VWS V13.01,2013-01-15 00:53:00,
2013-01-15 01:58:00,47.3,29.6,29.81,SSE,159,2.2,4.0,50,0.00,,FEW030,0.00,VWS V13.01,2013-01-15 00:58:00,
2013-01-15 02:03:00,47.3,29.6,29.81,SSE,150,2.7,2.7,50,0.00,,FEW030,0.00,VWS V13.01,2013-01-15 01:03:00,
2013-01-15 02:08:00,47.3,30.1,29.81,SSE,159,3.6,3.6,51,0.00,,FEW030,0.00,VWS V13.01,2013-01-15 01:08:00,
2013-01-15 02:13:00,47.3,30.1,29.81,SSE,152,3.6,3.6,51,0.00,,FEW030,0.00,VWS V13.01,2013-01-15 01:13:00,
2013-01-15 02:18:00,47.3,30.1,29.81,SSW,192,0.0,3.1,51,0.00,,FEW030,0.00,VWS V13.01,2013-01-15 01:18:00,
2013-01-15 02:23:00,46.9,30.2,29.81,SSE,150,2.2,2.7,52,0.00,,FEW030,0.00,VWS V13.01,2013-01-15 01:23:00,
2013-01-15 02:28:00,46.9,30.2,29.81,SE,144,0.0,0.0,52,0.00,,FEW030,0.00,VWS V13.01,2013-01-15 01:28:00,
2013-01-15 02:33:00,46.9,30.7,29.81,SE,146,0.0,0.0,53,0.00,,FEW030,0.00,VWS V13.01,2013-01-15 01:33:00,
2013-01-15 02:38:00,46.9,30.7,29.81,SE,141,0.0,0.0,53,0.00,,FEW030,0.00,VWS V13.01,2013-01-15 01:38:00,
2013-01-15 02:43:00,46.9,30.2,29.81,SSE,159,0.0,3.1,52,0.00,,FEW030,0.00,VWS V13.01,2013-01-15 01:43:00,
2013-01-15 02:48:00,46.9,30.2,29.81,SE,146,3.1,3.6,52,0.00,,FEW030,0.00,VWS V13.01,2013-01-15 01:48:00,
2013-01-15 02:53:00,46.9,30.2,29.81,SE,137,2.2,4.5,52,0.00,,FEW030,0.00,VWS V13.01,2013-01-15 01:53:00,
2013-01-15 02:58:00,46.9,30.7,29.81,South,170,0.0,3.6,53,0.00,,FEW030,0.00,VWS V13.01,2013-01-15 01:58:00,
2013-01-15 03:03:00,47.1,30.4,29.81,South,175,5.8,5.8,52,0.00,,FEW030,0.00,VWS V13.01,2013-01-15 02:03:00,
2013-01-15 03:08:00,47.1,30.4,29.81,SSE,165,4.9,4.9,52,0.00,,FEW030,0.00,VWS V13.01,2013-01-15 02:08:00,
2013-01-15 03:13:00,47.1,30.4,29.78,SE,140,0.0,2.7,52,0.00,,FEW030,0.00,VWS V13.01,2013-01-15 02:13:00,
2013-01-15 03:18:00,46.9,30.7,29.78,South,181,0.0,0.0,53,0.00,,FEW030,0.00,VWS V13.01,2013-01-15 02:18:00,
2013-01-15 03:23:00,46.8,31.0,29.78,South,173,0.0,3.1,54,0.00,,FEW030,0.00,VWS V13.01,2013-01-15 02:23:00,
2013-01-15 03:28:00,46.8,31.0,29.78,SE,143,3.1,3.1,54,0.00,,FEW030,0.00,VWS V13.01,2013-01-15 02:28:00,
2013-01-15 03:33:00,46.8,31.0,29.78,South,191,2.7,2.7,54,0.00,,FEW030,0.00,VWS V13.01,2013-01-15 02:33:00,
2013-01-15 03:38:00,46.8,31.0,29.78,South,187,0.0,0.0,54,0.00,,FEW030,0.00,VWS V13.01,2013-01-15 02:38:00,
2013-01-15 03:43:00,46.6,30.8,29.78,SSW,195,2.7,3.6,54,0.00,,FEW030,0.00,VWS V13.01,2013-01-15 02:43:00,
2013-01-15 03:48:00,46.6,30.8,29.78,SSW,196,2.2,2.2,54,0.00,,FEW030,0.00,VWS V13.01,2013-01-15 02:48:00,
2013-01-15 03:53:00,46.6,30.8,29.78,SSW,197,0.0,2.7,54,0.00,,FEW030,0.00,VWS V13.01,2013-01-15 02:53:00,
2013-01-15 03:58:00,46.6,30.8,29.78,South,182,0.0,3.1,54,0.00,,FEW030,0.00,VWS V13.01,2013-01-15 02:58:00,
2013-01-15 04:03:00,46.4,31.1,29.78,SSE,153,0.0,0.0,55,0.00,,SCT025,0.00,VWS V13.01,2013-01-15 03:03:00,
2013-01-15 04:08:00,46.2,31.4,29.78,SE,137,0.0,0.0,56,0.00,,SCT025,0.00,VWS V13.01,2013-01-15 03:08:00,
2013-01-15 04:13:00,46.4,31.1,29.78,SSE,159,0.0,3.1,55,0.00,,SCT025,0.00,VWS V13.01,2013-01-15 03:13:00,
2013-01-15 04:18:00,46.4,31.1,29.78,South,187,0.0,0.0,55,0.00,,SCT025,0.00,VWS V13.01,2013-01-15 03:18:00,
2013-01-15 04:23:00,46.4,31.1,29.78,SSW,200,0.0,0.0,55,0.00,,SCT025,0.00,VWS V13.01,2013-01-15 03:23:00,
2013-01-15 04:28:00,46.2,31.4,29.78,SSW,201,0.0,0.0,56,0.00,,SCT025,0.00,VWS V13.01,2013-01-15 03:28:00,
2013-01-15 04:33:00,46.2,31.4,29.78,SSW,206,0.0,0.0,56,0.00,,SCT025,0.00,VWS V13.01,2013-01-15 03:33:00,
2013-01-15 04:38:00,46.0,31.2,29.78,South,176,0.0,0.0,56,0.00,,SCT025,0.00,VWS V13.01,2013-01-15 03:38:00,
2013-01-15 04:43:00,45.9,31.5,29.78,South,187,0.0,0.0,57,0.00,,SCT025,0.00,VWS V13.01,2013-01-15 03:43:00,
2013-01-15 04:48:00,45.9,31.9,29.78,SW,216,0.0,3.6,58,0.00,,SCT025,0.00,VWS V13.01,2013-01-15 03:48:00,
2013-01-15 04:53:00,45.7,32.2,29.78,South,183,0.0,0.0,59,0.00,,SCT025,0.00,VWS V13.01,2013-01-15 03:53:00,
2013-01-15 04:58:00,45.7,32.6,29.78,WSW,251,0.0,6.3,60,0.00,,SCT025,0.00,VWS V13.01,2013-01-15 03:58:00,
2013-01-15 05:03:00,45.5,32.8,29.78,WSW,255,5.4,5.4,61,0.00,,SCT025,0.00,VWS V13.01,2013-01-15 04:03:00,
2013-01-15 05:08:00,45.5,32.8,29.78,South,187,3.1,3.1,61,0.00,,SCT025,0.00,VWS V13.01,2013-01-15 04:08:00,
2013-01-15 05:13:00,45.5,32.8,29.78,WSW,258,0.0,2.2,61,0.00,,SCT025,0.00,VWS V13.01,2013-01-15 04:13:00,
2013-01-15 05:18:00,45.5,33.2,29.78,West,274,0.0,5.4,62,0.00,,SCT025,0.00,VWS V13.01,2013-01-15 04:18:00,
2013-01-15 05:23:00,45.3,33.1,29.78,SSW,212,3.1,3.1,62,0.00,,SCT025,0.00,VWS V13.01,2013-01-15 04:23:00,
2013-01-15 05:28:00,45.3,33.5,29.75,SSE,154,0.0,4.0,63,0.00,,SCT025,0.00,VWS V13.01,2013-01-15 04:28:00,
2013-01-15 05:33:00,45.3,33.5,29.75,SE,140,0.0,2.2,63,0.00,,SCT025,0.00,VWS V13.01,2013-01-15 04:33:00,
2013-01-15 05:38:00,45.5,33.7,29.75,South,184,3.1,3.1,63,0.00,,SCT025,0.00,VWS V13.01,2013-01-15 04:38:00,
2013-01-15 05:43:00,45.7,33.8,29.75,SSE,164,2.7,2.7,63,0.00,,SCT025,0.00,VWS V13.01,2013-01-15 04:43:00,
2013-01-15 05:48:00,45.9,34.0,29.75,ESE,115,2.7,2.7,63,0.00,,SCT025,0.00,VWS V13.01,2013-01-15 04:48:00,
2013-01-15 05:53:00,45.7,33.8,29.75,South,178,0.0,0.0,63,0.00,,SCT025,0.00,VWS V13.01,2013-01-15 04:53:00,
2013-01-15 05:58:00,45.5,33.7,29.75,SSW,205,3.6,5.8,63,0.00,,SCT025,0.00,VWS V13.01,2013-01-15 04:58:00,
2013-01-15 06:00:00,45.5,33.7,29.75,West,270,0.0,0.0,63,0.00,,SCT025,0.00,VWS V13.01,2013-01-15 05:00:00,
2013-01-15 06:01:00,45.5,33.7,29.75,NW,321,0.0,2.7,63,0.00,,SCT025,0.00,VWS V13.01,2013-01-15 05:01:00,
2013-01-15 06:02:00,45.5,33.7,29.75,NNE,21,0.0,0.0,63,0.00,,SCT025,0.00,VWS V13.01,2013-01-15 05:02:00,
2013-01-15 06:07:00,45.7,33.8,29.75,WSW,254,0.0,0.0,63,0.00,,SCT025,0.00,VWS V13.01,2013-01-15 05:07:00,
2013-01-15 06:12:00,45.7,33.8,29.78,SSW,198,3.6,3.6,63,0.00,,SCT025,0.00,VWS V13.01,2013-01-15 05:12:00,
2013-01-15 06:17:00,45.9,34.0,29.78,South,175,0.0,0.0,63,0.00,,SCT025,0.00,VWS V13.01,2013-01-15 05:17:00,
2013-01-15 06:22:00,45.9,33.6,29.78,SE,129,0.0,5.8,62,0.00,,SCT025,0.00,VWS V13.01,2013-01-15 05:22:00,
2013-01-15 06:27:00,46.0,33.4,29.78,SSE,158,2.2,2.2,61,0.00,,SCT025,0.00,VWS V13.01,2013-01-15 05:27:00,
2013-01-15 06:32:00,46.0,33.0,29.78,WSW,239,2.2,2.2,60,0.00,,SCT025,0.00,VWS V13.01,2013-01-15 05:32:00,
2013-01-15 06:37:00,46.2,32.7,29.78,SSE,162,2.2,2.2,59,0.00,,SCT025,0.00,VWS V13.01,2013-01-15 05:37:00,
2013-01-15 18:04:00,46.9,34.2,29.60,ESE,103,0.0,0.0,61,0.00,,SCT025,0.00,VWS V13.01,2013-01-15 17:04:00,
2013-01-15 18:09:00,46.8,34.0,29.60,East,94,0.0,0.0,61,0.00,,SCT025,0.00,VWS V13.01,2013-01-15 17:09:00,
2013-01-15 18:15:00,46.6,34.3,29.60,ESE,123,0.0,0.0,62,0.00,,SCT025,0.00,VWS V13.01,2013-01-15 17:15:00,
2013-01-15 18:20:00,46.4,34.5,29.60,NE,55,0.0,0.0,63,0.00,,SCT025,0.00,VWS V13.01,2013-01-15 17:20:00,
2013-01-15 18:46:00,45.9,33.6,29.60,ENE,71,0.0,0.0,62,0.00,,FEW070,0.00,VWS V13.01,2013-01-15 17:46:00,
2013-01-15 18:47:00,45.9,33.6,29.60,ENE,71,0.0,0.0,62,0.00,,SCT025,0.00,VWS V13.01,2013-01-15 17:47:00,
2013-01-15 18:48:00,46.0,33.8,29.60,NE,43,0.0,0.0,62,0.00,,FEW070,0.00,VWS V13.01,2013-01-15 17:48:00,
2013-01-15 18:49:00,45.9,33.6,29.60,NE,56,0.0,0.0,62,0.00,,SCT025,0.00,VWS V13.01,2013-01-15 17:49:00,
2013-01-15 18:50:00,45.9,33.6,29.60,ENE,58,0.0,0.0,62,0.00,,SCT025,0.00,VWS V13.01,2013-01-15 17:50:00,
2013-01-15 18:51:00,45.9,33.6,29.60,ENE,60,0.0,0.0,62,0.00,,SCT025,0.00,VWS V13.01,2013-01-15 17:51:00,
2013-01-15 22:00:00,44.2,33.2,29.52,ESE,121,2.7,2.7,65,0.00,,SCT025,0.00,VWS V13.01,2013-01-15 21:00:00,
2013-01-15 22:05:00,44.2,32.8,29.52,East,91,0.0,0.0,64,0.00,,FEW070,0.00,VWS V13.01,2013-01-15 21:05:00,
2013-01-15 22:10:00,44.4,32.6,29.52,ESE,118,0.0,0.0,63,0.00,,FEW070,0.00,VWS V13.01,2013-01-15 21:10:00,
2013-01-15 22:15:00,44.8,32.6,29.52,SSE,156,0.0,2.2,62,0.00,,FEW070,0.00,VWS V13.01,2013-01-15 21:15:00,
2013-01-15 22:20:00,45.0,32.3,29.52,ENE,58,2.7,2.7,61,0.00,,FEW070,0.00,VWS V13.01,2013-01-15 21:20:00,
2013-01-15 22:25:00,45.5,32.0,29.52,SE,136,0.0,3.1,59,0.00,,FEW070,0.00,VWS V13.01,2013-01-15 21:25:00,
2013-01-15 22:30:00,45.9,31.9,29.52,ESE,113,3.1,5.4,58,0.00,,FEW070,0.00,VWS V13.01,2013-01-15 21:30:00,
2013-01-15 22:35:00,46.0,32.1,29.52,SE,140,3.6,3.6,58,0.00,,FEW070,0.00,VWS V13.01,2013-01-15 21:35:00,
2013-01-15 22:40:00,46.0,32.1,29.52,SE,144,0.0,0.0,58,0.00,,FEW070,0.00,VWS V13.01,2013-01-15 21:40:00,
2013-01-15 22:45:00,46.0,33.0,29.52,SW,231,4.0,4.0,60,0.00,,FEW070,0.00,VWS V13.01,2013-01-15 21:45:00,
2013-01-15 22:50:00,46.6,34.7,29.52,SSE,162,0.0,2.7,63,0.00,,FEW070,0.00,VWS V13.01,2013-01-15 21:50:00,
2013-01-15 22:55:00,46.6,35.8,29.52,NNE,28,2.2,2.2,66,0.00,,FEW070,0.00,VWS V13.01,2013-01-15 21:55:00,
2013-01-15 23:00:00,46.4,36.4,29.52,NE,38,4.0,6.3,68,0.04,,FEW020,0.04,VWS V13.01,2013-01-15 22:00:00,
2013-01-15 23:05:00,46.2,35.9,29.52,East,88,5.4,5.4,67,0.04,,FEW020,0.04,VWS V13.01,2013-01-15 22:05:00,
2013-01-15 23:10:00,46.0,36.1,29.52,ESE,106,4.9,4.9,68,0.04,,FEW020,0.04,VWS V13.01,2013-01-15 22:10:00,
2013-01-15 23:15:00,46.2,37.3,29.49,SE,145,11.0,11.0,71,0.04,,FEW020,0.04,VWS V13.01,2013-01-15 22:15:00,
2013-01-15 23:20:00,46.0,37.9,29.49,ESE,108,2.7,3.1,73,0.04,,FEW020,0.04,VWS V13.01,2013-01-15 22:20:00,
2013-01-15 23:25:00,46.0,38.9,29.49,ESE,107,6.3,6.3,76,0.04,,FEW020,0.04,VWS V13.01,2013-01-15 22:25:00,
2013-01-15 23:30:00,46.2,38.8,29.49,ESE,120,3.6,6.3,75,0.08,,FEW020,0.08,VWS V13.01,2013-01-15 22:30:00,
2013-01-15 23:35:00,46.2,38.4,29.49,SW,236,4.0,4.5,74,0.08,,FEW020,0.08,VWS V13.01,2013-01-15 22:35:00,
2013-01-15 23:40:00,46.0,38.2,29.49,NNW,344,4.0,6.3,74,0.08,,FEW020,0.08,VWS V13.01,2013-01-15 22:40:00,
2013-01-15 23:45:00,46.0,37.9,29.46,SE,145,0.0,2.7,73,0.08,,FEW020,0.08,VWS V13.01,2013-01-15 22:45:00,
2013-01-15 23:50:00,45.9,37.4,29.46,WSW,258,3.1,3.1,72,0.08,,FEW020,0.08,VWS V13.01,2013-01-15 22:50:00,
2013-01-15 23:55:00,46.0,37.2,29.46,SE,133,5.4,5.4,71,0.08,,FEW020,0.08,VWS V13.01,2013-01-15 22:55:00,